Weather History for WKQIR - December, 2013

Change the Weather History Date:

Tuesday, December 10, 2013

  Actual Average Record
Temperature  
Mean Temperature 68 °F -  
Max Temperature 76 °F - - ()
Min Temperature 61 °F - - ()
Cooling Degree Days 4    
Growing Degree Days 18 (Base 50)    
Moisture  
Dew Point 56 °F    
Average Humidity 67    
Maximum Humidity 91    
Minimum Humidity 50    
Precipitation  
Precipitation 0.00 in - - ()
Sea Level Pressure  
Sea Level Pressure 30.00 in    
Wind  
Wind Speed 13 mph ()    
Max Wind Speed 25 mph    
Max Gust Speed 30 mph    
Visibility 6.2 miles    
Events      
T = Trace of Precipitation, MM = Missing Value Source: Averaged Metar Reports

Daily Weather History Graph

Daily Weather History Graph

Search for Another Location

Airport or City:

Trip Planner

Search our weather history database for the weather conditions in past years. The results will help you decide how hot, cold, wet, or windy it might be!

Date:

Astronomy

Dec. 10, 2013 Rise Set
Actual Time 6:09 AM AST 4:45 PM AST
Civil Twilight 5:44 AM AST 5:10 PM AST
Nautical Twilight 5:15 AM AST 5:39 PM AST
Astronomical Twilight 4:47 AM AST 6:07 PM AST
Moon 12:01 PM AST (12/10) No Moon Set
Length of Visible Light 11h 26m
Length of Day
10h 36m
First Quarter, 58% of the Moon is Illuminated
Dec 10
First Quarter
Dec 17
Full
Dec 25
Last Quarter
Jan 1
New
Jan 8
First Quarter

Hourly Weather History & Observations

Time (AST) Temp. Dew Point Humidity Pressure Visibility Wind Dir Wind Speed Gust Speed Precip Events Conditions
12:58 AM 65.5 °F 60.6 °F 84% 29.94 in 6.2 mi North 9.2 mph - N/A   Clear
1:58 AM 63.9 °F 60.1 °F 87% 29.94 in 6.2 mi North 8.1 mph - N/A   Clear
2:58 AM 62.4 °F 59.7 °F 91% 29.93 in 6.2 mi NNW 9.2 mph - N/A   Clear
3:58 AM 61.5 °F 59.0 °F 91% 29.94 in 6.2 mi NNW 8.1 mph - N/A   Clear
4:58 AM 62.4 °F 58.1 °F 86% 29.95 in 6.2 mi NNW 9.2 mph - N/A   Clear
5:58 AM 63.5 °F 56.7 °F 78% 29.97 in 6.2 mi NNW 9.2 mph - N/A   Clear
6:58 AM 64.4 °F 55.2 °F 72% 30.00 in 6.2 mi North 12.7 mph - N/A   Clear
7:58 AM 69.1 °F 55.0 °F 61% 30.02 in 6.2 mi North 16.1 mph - N/A   Clear
8:58 AM 71.8 °F 56.5 °F 58% 30.04 in 6.2 mi North 20.7 mph - N/A   Clear
9:58 AM 73.8 °F 56.5 °F 55% 30.03 in 6.2 mi North 20.7 mph - N/A   Clear
10:58 AM 75.0 °F 56.8 °F 53% 30.01 in 6.2 mi North 19.6 mph - N/A   Clear
11:58 AM 76.5 °F 56.5 °F 50% 29.99 in 6.2 mi NNW 17.3 mph - N/A   Clear
12:58 PM 74.8 °F 58.1 °F 56% 29.96 in 6.2 mi North 23.0 mph - N/A   Clear
1:58 PM 74.3 °F 56.5 °F 54% 29.96 in 6.2 mi NNW 25.3 mph - N/A   Clear
2:58 PM 72.1 °F 55.2 °F 55% 29.97 in 6.2 mi North 25.3 mph 29.9 mph N/A   Clear
3:58 PM 70.0 °F 54.1 °F 57% 30.00 in 6.2 mi North 20.7 mph - N/A   Clear
4:58 PM 67.5 °F 53.4 °F 61% 30.02 in 6.2 mi NNW 23.0 mph - N/A   Clear
5:58 PM 66.2 °F 52.7 °F 62% 30.03 in 6.2 mi North 18.4 mph - N/A   Clear
6:58 PM 65.1 °F 52.5 °F 64% 30.05 in 6.2 mi North 15.0 mph - N/A   Clear
7:58 PM 64.2 °F 51.8 °F 64% 30.07 in 6.2 mi North 12.7 mph - N/A   Clear
8:58 PM 63.3 °F 52.3 °F 67% 30.06 in 6.2 mi NNW 13.8 mph - N/A   Clear
9:58 PM 62.4 °F 52.3 °F 70% 30.06 in 6.2 mi NNW 15.0 mph - N/A   Clear
10:58 PM 61.7 °F 52.0 °F 70% 30.05 in 6.2 mi NNW 15.0 mph - N/A   Clear
11:58 PM 61.2 °F 52.0 °F 72% 30.04 in 6.2 mi NNW 15.0 mph - N/A   Clear